Simultaneous Nadir Overpasses (SNOs) Predictions

Prediction of SNOs between METOP-A and NOAA-19 Satellite Orbit:

Table of predicted SNOs for the next 14.0 days since TLE Epoch: 7/5/2012
Index Date (METOP-A) Time (METOP-A) METOP-A Lat,Lon Date (NOAA-19) Time (NOAA-19) NOAA-19 Lat,Lon Distance(km) Time Diff (sec)
1 07/14/2012 23:39:36 -73.41, -1.59 07/14/2012 23:38:24 -73.41, -2.78 37.73 72
2 07/15/2012 00:30:21 73.11, 165.10 07/15/2012 00:29:18 73.14, 165.08 3.14 63
3 07/15/2012 01:21:04 -73.08, -27.65 07/15/2012 01:20:23 -73.10, -27.61 2.43 41
4 07/15/2012 02:11:43 73.09, 139.71 07/15/2012 02:11:22 73.08, 139.69 1.20 21
5 07/15/2012 03:02:26 -73.06, -53.04 07/15/2012 03:02:27 -73.04, -53.00 2.48 1
6 07/15/2012 03:53:06 73.02, 114.21 07/15/2012 03:53:26 73.02, 114.30 3.10 20
7 07/15/2012 04:43:48 -73.03, -78.43 07/15/2012 04:44:32 -73.03, -78.49 2.23 44
8 07/15/2012 05:34:27 72.99, 88.82 07/15/2012 05:35:30 73.01, 88.80 1.83 63
9 07/15/2012 06:25:18 -72.56,-104.76 07/15/2012 06:26:28 -72.62,-103.14 54.59 70




NCC Satellite Simultaneous Nadir Overpasses (SNOs) Prediction Service
